AirNav   Free Bose Alto or Rondo audio sunglasses
 
 1379 users online  

2CD2 Medical Center of the Rockies Heliport
Loveland, Colorado, USA

GOING TO LOVELAND?


FAA INFORMATION EFFECTIVE 05 NOVEMBER 2020

Location

FAA Identifier: 2CD2
Lat/Long: 40-25-00.1000N 104-59-45.8800W
40-25.001667N 104-59.764667W
40.4166944,-104.9960778
(estimated)
Elevation: 5010 ft. / 1527 m (estimated)
From city: 3 miles E of LOVELAND, CO
Time zone: UTC -7 (UTC -6 during Daylight Saving Time)
Zip code: 80538

Heliport Operations

Heliport use: Private use, MEDICAL USE.
Activation date: 04/2007
Control tower: no
ARTCC: DENVER CENTER
FSS: DENVER FLIGHT SERVICE STATION
Attendance: CONTINUOUS
Segmented circle: no

Heliport Communications

WX AWOS-3PT at FNL (2.2 nm N): 135.075 (970-669-9187)
WX AWOS-3PT at GXY (17 nm E): 135.175 (970-352-3511)
WX AWOS-3 at LMO (17 nm SW): 120.0 (303-684-7545)

Nearby radio navigation aids

VOR radial/distance  VOR name  Freq  Var
GLLr243/20.9GILL VOR/DME114.2013E
BJCr001/30.9JEFFCO VOR/DME115.4011E
DVVr323/35.7MILE HIGH VORTAC114.7008E
DENr329/39.4DENVER VOR/DME117.9008E

 
NDB name  Hdg/Dist  Freq  Var  ID
COLLN332/3.440009EFN ..-. -.

Heliport Services

Runway Information

Helipad H2

Dimensions: 42 x 42 ft. / 13 x 13 m
Surface: concrete
Operational restrictions: GROUND HELIPAD.
Latitude: 40-25.002000N
Longitude: 104-59.765500W
Elevation: 4976.0 ft.
Traffic pattern: leftleft

Helipad H1

Dimensions: 45 x 45 ft. / 14 x 14 m
Surface: DECK
Operational restrictions: ROOFTOP HELIPAD.
Latitude: 40-25.001667N
Longitude: 104-59.764667W
Elevation: 5010.0 ft.
Traffic pattern: leftleft

Heliport Ownership and Management from official FAA records

Ownership: Privately-owned
Owner: MEDICAL CENTER OF THE ROCKIES
2500 ROCKY MOUNTAIN AVE
LOVELAND, CO 80538
Phone 970-624-2500
Manager: DARREN BOYLE
2500 ROCKY MOUNTAIN AVE
LOVELAND, CO 80538
Phone 970-624-1050

Additional Remarks

FOR CD CTC DENVER APCH AT 303-342-1916.

Instrument Procedures

There are no published instrument procedures at 2CD2.

Some nearby airports with instrument procedures:

KFNL - Northern Colorado Regional Airport (2 nm N)
KGXY - Greeley-Weld County Airport (17 nm E)
KLMO - Vance Brand Airport (17 nm SW)
KEIK - Erie Municipal Airport (25 nm S)
KBJC - Rocky Mountain Metropolitan Airport (31 nm S)
 
Loc | Ops | Rwys | IFR | FBO | Links
Com | Nav | Svcs | Stats | Notes

AirBoss

 
Area around 2CD2 (Medical Center of the Rockies Heliport)
 
Road maps at: MapQuest Bing Google
 
Aerial photo
No photo
 
Sectional chart

 
Airport distance calculator
Flying to Medical Center of the Rockies Heliport? Find the distance to fly.

From to 2CD2

Sunrise and sunset
Times for 30-Nov-2020
 Local
(UTC-7)
 Zulu
(UTC)
Morning civil twilight06:3513:35
Sunrise07:0514:05
Sunset16:3323:33
Evening civil twilight17:0300:03

Current date and time
Zulu (UTC)  30-Nov-2020 15:43:27
Local (UTC-7)  30-Nov-2020 08:43:27
 
METAR
KFNL 
2nm NW 
301456Z 00000KT 10SM CLR M08/M09 A3020 RMK AO2 SLP266 T10781094 56015 FZRANO
KLMO 
17nm SW 
301515Z AUTO 00000KT 10SM CLR M06/M10 A3021 RMK AO2 T10571104
KGXY 
17nm E 
301456Z AUTO 00000KT 10SM CLR M10/M13 A3022 RMK AO2 SLP295 T11001128 56016 FZRANO
TAF
KBJC 
31nm S 
301126Z 3012/0112 25006KT P6SM SKC FM302100 28010KT P6SM FEW220 FM010000 VRB05KT P6SM FEW220 FM010500 28006KT P6SM FEW220
NOTAMs
Click for the latest NOTAMs
NOTAMs are issued by the DoD/FAA and will open in a separate window not controlled by AirNav.

 

 
 

Would you like to see your business listed on this page?

 If your business provides an interesting product or service to pilots, flight crews, aircraft, or users of the Medical Center of the Rockies Heliport, you should consider listing it here.  To start the listing process, click on the button below
 
Add a business
 

Other Pages about Medical Center of the Rockies Heliport

Update a link
 
Copyright © AirNav, LLC. All rights reserved. Privacy Policy  Contact